NOAA 16 DEB, 41154

Orbit data source: Space-Track

NOAA 16 DEB, 41154 is space debris in SSO originally from a launch on Thu, 21 Sep 2000 UTC launched from the Air Force Western Test Range (AFWTR). Debris objects in space refer to the collection of defunct objects orbiting the Earth. Examples of debris include non-operational satellites, rocket bodies, and fragments generated from explosions, collisions, or faulty payload assembly.

Loading next visibility...
Identifier
41154, 2000-055CM
Orbit
SSO
Country
Flag of USUS
Related business
Manufacturer
Unknown
Mission
Spacecraft
Bus & Motor
Unknown
Mass
Unknown
Launch date (UTC)
2000-09-21 (25 years ago)
Launch vehicle
Unknown
Launch site
Air Force Western Test Range (AFWTR)
Object type
Payload
Rocket body
Debris
Shape & HBR
Unknown shape, 0.1 m
Radar Cross Section
Small (<0.1 m²)

Expand to show TLE details & history
Last TLE update: 2 days ago

TLE from 2 days ago
0 NOAA 16 DEB
1 41154U 00055CM  25289.01034980  .00003731  00000-0  20872-2 0  9991
2 41154  98.7815 310.6050 0054970 309.3320  50.2986 14.10568921505158
Epoch: 2025-10-16T00:14Z
TLE epoch observation values (Epoch: 2025-10-16T00:14:54.222Z)
Latitude
-0.00001°
Longitude
-77.89714°
Altitude
835.043 km
Speed
7.448 km/s
True Right ascension
20h 42m 25s
True Declination
0° 00' 00"
Sunlit
Object was in daylight at epoch
Visualization orbit readout
Latitude
Unknown
Longitude
Unknown
Altitude
Unknown
Speed
Unknown
Apparent Right ascension
Unknown
Apparent Declination
Unknown
Sunlit
N/A
Visualization observer readout
Local Sidereal Time
04:29:07
Azimuth
Unknown
Elevation
Unknown
Doppler factor
Unknown
Orbital elements
Apogee altitude
894.358 km
Perigee altitude
814.842 km
Semi-major axis
7,232.737 km
Eccentricity
0.0055
Inclination
98.7815°
RAAN
310.605°
Arg. of periapsis
309.332°
True anomaly
50.78537°
Mean anomaly
50.2986°
Eccentric anomaly
50.54177°
Mean motion
3.52849 °/min
Orbital period
102.03 mins
BSTAR
0.0020872
Loading maneuver chart data...
Computing Atmospheric mass density...
Loading historical data...
Loading historical data...
Loading historical data...
Loading historical data...
Loading historical data...
Loading historical data...
Loading historical data...

Documentation

Showing up to 5 results
|